Satellite-Ground Cal/Val Site Overpasses Predictions

Prediction of Satellite NPP Overpassing Cal/Val Site: Antarctic Dome C

Ground Cal/Val Site Location: Latitude: -75.10, Longitude: 123.35; Satellite-Ground Site NADIR distance within 100 km.

Table of predicted overpasses for the next 14.0 days since TLE Epoch: 12/3/2011
Interval Starting Time Ending Time Minimum Distance Time Minimum Distance (km)
1 12/04/2011 15:01:43 12/04/2011 15:02:07 12/04/2011 15:01:55 57.10
2 12/05/2011 14:42:52 12/05/2011 14:43:17 12/05/2011 14:43:05 52.23
3 12/06/2011 07:44:33 12/06/2011 07:44:51 12/06/2011 07:44:42 76.41
4 12/07/2011 07:25:38 12/07/2011 07:26:05 12/07/2011 07:25:52 31.55
5 12/09/2011 15:08:01 12/09/2011 15:08:09 12/09/2011 15:08:05 94.57
6 12/10/2011 14:48:59 12/10/2011 14:49:27 12/10/2011 14:49:13 16.81
7 12/12/2011 07:31:46 12/12/2011 07:32:15 12/12/2011 07:32:01 5.64
8 12/15/2011 14:55:07 12/15/2011 14:55:36 12/15/2011 14:55:21 19.23
9 12/16/2011 14:36:24 12/16/2011 14:36:37 12/16/2011 14:36:31 87.96
